Farmingdale, NY

6:03 PM EDT on July 20, 2017 (GMT -0400)
Republic

Weather History for KFRG - September, 2013

Change the Weather History Date:

Friday, September 27, 2013

  Actual Average Record
Temperature  
Mean Temperature 59 °F -  
Max Temperature 66 °F 68 °F 87 °F (1998)
Min Temperature 52 °F 52 °F 45 °F (2000)
Degree Days  
Heating Degree Days 6    
Growing Degree Days 9 (Base 50)    
Moisture  
Dew Point 51 °F    
Average Humidity 74    
Maximum Humidity 93    
Minimum Humidity 56    
Precipitation  
Precipitation 0.00 in - - ()
Sea Level Pressure  
Sea Level Pressure 30.20 in    
Wind  
Wind Speed 5 mph (NNE)    
Max Wind Speed 12 mph    
Max Gust Speed 16 mph    
Visibility 10 miles    
Events      
Averages and records for this station are not official NWS values.
T = Trace of Precipitation, MM = Missing Value Source: NWS Daily Summary

Daily Weather History Graph

Daily Weather History Graph

Search for Another Location

Airport or City:

Trip Planner

Search our weather history database for the weather conditions in past years. The results will help you decide how hot, cold, wet, or windy it might be!

Date:

Astronomy

Sep. 27, 2013 Rise Set
Actual Time 6:46 AM EDT 6:42 PM EDT
Civil Twilight 6:19 AM EDT 7:09 PM EDT
Nautical Twilight 5:47 AM EDT 7:41 PM EDT
Astronomical Twilight 5:14 AM EDT 8:13 PM EDT
Moon No Moon Rise 2:20 PM EDT (9/27)
Length of Visible Light 12h 50m
Length of Day
11h 55m
Last Quarter, 45% of the Moon is Illuminated
Sep 27
Last Quarter
Oct 4
New
Oct 11
First Quarter
Oct 18
Full
Oct 26
Last Quarter

Hourly Weather History & Observations

Time (EDT) Temp. Dew Point Humidity Pressure Visibility Wind Dir Wind Speed Gust Speed Precip Events Conditions
12:53 AM 52.0 °F 50.0 °F 93% 30.11 in 10.0 mi North 3.5 mph - N/A   Clear
1:53 AM 52.0 °F 50.0 °F 93% 30.13 in 10.0 mi Calm Calm - N/A   Scattered Clouds
2:53 AM 53.1 °F 50.0 °F 89% 30.13 in 10.0 mi Calm Calm - N/A   Mostly Cloudy
3:53 AM 54.0 °F 51.1 °F 90% 30.13 in 10.0 mi North 3.5 mph - N/A   Scattered Clouds
4:16 AM 53.6 °F 50.0 °F 88% 30.13 in 10.0 mi North 5.8 mph - N/A   Mostly Cloudy
4:27 AM 55.4 °F 51.8 °F 88% 30.13 in 10.0 mi North 4.6 mph - N/A   Mostly Cloudy
4:53 AM 53.1 °F 51.1 °F 93% 30.14 in 10.0 mi North 5.8 mph - N/A   Mostly Cloudy
5:53 AM 53.1 °F 51.1 °F 93% 30.16 in 10.0 mi NNE 6.9 mph - N/A   Overcast
6:53 AM 54.0 °F 51.1 °F 90% 30.17 in 10.0 mi NNE 6.9 mph - N/A   Overcast
7:53 AM 55.0 °F 52.0 °F 89% 30.20 in 10.0 mi NNE 6.9 mph - N/A   Mostly Cloudy
8:53 AM 60.1 °F 54.0 °F 80% 30.21 in 10.0 mi NNE 11.5 mph - N/A   Clear
9:53 AM 61.0 °F 54.0 °F 78% 30.22 in 10.0 mi ENE 8.1 mph - N/A   Overcast
10:53 AM 63.0 °F 53.1 °F 70% 30.23 in 10.0 mi NE 8.1 mph - N/A   Overcast
11:28 AM 64.4 °F 51.8 °F 64% 30.23 in 10.0 mi ENE 4.6 mph - N/A   Overcast
11:44 AM 64.4 °F 51.8 °F 64% 30.23 in 10.0 mi NE 9.2 mph - N/A   Overcast
11:53 AM 64.0 °F 50.0 °F 60% 30.23 in 10.0 mi ENE 9.2 mph - N/A   Overcast
12:53 PM 66.0 °F 50.0 °F 56% 30.23 in 10.0 mi NNE 9.2 mph - N/A   Overcast
1:53 PM 64.9 °F 51.1 °F 61% 30.21 in 10.0 mi NE 8.1 mph 16.1 mph N/A   Overcast
2:53 PM 64.0 °F 48.9 °F 58% 30.21 in 10.0 mi NE 8.1 mph - N/A   Overcast
3:53 PM 63.0 °F 48.9 °F 60% 30.21 in 10.0 mi NE 10.4 mph - N/A   Overcast
4:53 PM 63.0 °F 50.0 °F 63% 30.21 in 10.0 mi NE 5.8 mph - N/A   Overcast
5:53 PM 63.0 °F 50.0 °F 63% 30.22 in 10.0 mi NE 6.9 mph - N/A   Overcast
6:53 PM 62.1 °F 48.9 °F 62% 30.22 in 10.0 mi NNE 8.1 mph - N/A   Overcast
7:53 PM 62.1 °F 48.9 °F 62% 30.23 in 10.0 mi NNE 4.6 mph - N/A   Overcast
8:53 PM 62.1 °F 50.0 °F 65% 30.24 in 10.0 mi NNE 5.8 mph - N/A   Overcast
9:53 PM 61.0 °F 51.1 °F 70% 30.25 in 10.0 mi NE 5.8 mph - N/A   Overcast
10:53 PM 61.0 °F 51.1 °F 70% 30.27 in 10.0 mi NNE 4.6 mph - N/A   Overcast
11:53 PM 61.0 °F 52.0 °F 72% 30.27 in 10.0 mi NE 3.5 mph - N/A   Overcast